Tracking 30070 objects as of 15-Jan-2025
HD Live streaming from Space Station
objects crossing your sky now

CZ-4B DEB

Track CZ-4B DEB now!
10-day predictions


NORAD ID: 38310
Int'l Code: 2011-079D
Perigee: 634.0 km
Apogee: 789.4 km
Inclination: 98.7 °
Period: 98.9 minutes
Semi major axis: 7082 km
RCS: 0.0012 m2 (small)
Launch date: December 22, 2011
Source: People's Republic of China (PRC)
Launch site: Taiyaun Space Center, China (TSC)

Note: This is SATELLITE DEBRIS
Your satellite tracking list
Your tracking list is empty




NASA's NSSDC Master Catalog

Two Line Element Set (TLE):
1 38310U 11079D   25014.58839417  .00007683  00000-0  16027-2 0  9992
2 38310  98.6759 295.2411 0109746 344.2215 138.1861 14.56475070686820
Source of the keplerian elements: AFSPC